Dewpoint
59 58 57 56 56 56 56 56 55 55 53 51 49 49 49 53 55 54 54 54 52 49
56 57 55 56 56 55 54 54 55 53 52 52 51 49 48 50 53 51 52 51 50 49
55 55 55 54 54 54 53 53 52 52 51 51 51 49 48 49 48 48 49 49 47 46
54 54 53 53 52 53 53 52 52 52 51 51 51 50 49 48 47 47 47 47 47 45
53 53 52 53 53 52 51 51 51 51 51 51 51 51 50 49 48 47 47 48 47 44
52 52 52 52 52 51 50 50 50 50 49 49 50 50 49 49 49 48 47 46 45 42
48 48 49 49 50 50 50 48 46 44 42 42 43 44 44 43 42 41 40 39 38 37
46 45 45 43 43 43 42 42 41 39 38 38 37 36 37 37 36 35 34 34 35 36
45 45 45 43 42 40 40 40 40 39 39 40 39 42 41 39 37 37 37 36 37 39
45 45 44 44 42 42 41 39 39 38 38 38 40 42 41 41 39 39 39 40 41 38
44 43 43 42 41 40 38 38 37 36 37 38 38 41 39 38 37 36 36 36 37 37
41 41 41 40 38 37 36 35 33 33 34 34 35 37 35 31 30 31 32 31 32 31
37 37 37 37 36 35 33 32 31 31 31 34 32 34 32 27 27 28 28 28 32 36
33 34 34 35 33 32 31 32 31 31 31 30 32 34 34 33 29 30 30 30 31 34
Lifted_Index
0 1 2 2 3 3 3 2 2 3 4 5 6 6 7 6 5 4 4 5 6 7
-0 0 1 2 2 3 3 2 2 3 4 5 6 6 7 6 6 5 5 5 6 7
-1 -0 0 1 1 2 2 3 3 3 3 4 5 5 6 7 8 7 7 7 7 8
-0 -0 -0 0 1 1 2 3 3 3 3 4 4 4 5 6 7 8 9 9 9 9
1 1 1 1 1 2 2 3 3 3 3 4 4 4 4 5 7 8 9 9 9 9
2 2 2 2 2 2 3 3 4 4 4 4 5 5 5 6 7 8 9 9 9 9
2 2 2 2 3 3 4 4 5 5 5 5 6 6 7 7 7 8 8 8 8 8
3 3 3 3 4 4 5 5 6 6 6 6 6 7 7 7 7 7 8 8 8 8
4 4 4 5 5 6 6 6 7 6 6 6 7 8 8 8 8 8 8 9 9 10
6 7 7 7 8 8 8 8 8 8 8 8 9 10 10 11 11 11 11 11 11 12
9 9 10 10 10 10 11 11 11 11 12 12 13 13 14 14 14 14 14 15 15 15
11 11 12 12 13 13 13 14 14 15 15 15 16 17 17 17 17 17 17 17 17 17
13 13 13 14 14 15 15 16 16 16 16 17 18 19 19 19 18 18 18 18 18 18
14 14 14 15 15 16 16 16 16 16 17 18 18 19 19 19 18 18 18 18 18 18